Temp
-7 -7 -7 -7 -7 -8 -8 -8 -8 -8 -8 -9 -9 -8 -8 -9 -9 -10 -9 -10 -11 -10 -10 -10 -10 -10 -10 -11 -10 -10 -11 -11 -11 -11 -11 -11 -10 -10 -11 -11 -11 -11 -11 -11
-8 -8 -7 -8 -8 -8 -9 -8 -7 -8 -9 -9 -9 -8 -7 -9 -9 -9 -9 -10 -10 -10 -10 -10 -10 -10 -10 -10 -10 -10 -10 -11 -11 -11 -11 -11 -11 -10 -11 -11 -11 -11 -11 -10
-8 -8 -8 -8 -8 -8 -8 -8 -9 -9 -9 -9 -8 -7 -8 -9 -9 -9 -9 -9 -9 -10 -10 -10 -10 -10 -10 -10 -10 -10 -11 -11 -11 -11 -11 -11 -11 -11 -11 -11 -11 -11 -11 -11
-9 -9 -8 -8 -8 -9 -8 -9 -8 -8 -8 -8 -9 -8 -9 -8 -9 -9 -9 -9 -9 -9 -10 -10 -10 -10 -10 -10 -10 -10 -11 -11 -11 -11 -11 -11 -11 -11 -11 -11 -11 -11 -11 -11
-9 -9 -9 -9 -9 -9 -9 -9 -9 -8 -8 -9 -10 -9 -9 -9 -9 -9 -9 -9 -9 -10 -10 -10 -11 -10 -10 -10 -10 -10 -11 -11 -11 -11 -11 -11 -10 -11 -10 -10 -11 -10 -11 -11
-9 -9 -10 -9 -9 -10 -9 -9 -9 -9 -9 -10 -10 -9 -9 -9 -9 -10 -9 -9 -10 -9 -10 -10 -10 -9 -10 -10 -10 -10 -10 -11 -11 -11 -11 -11 -11 -10 -11 -10 -11 -11 -11 -11
-9 -10 -9 -9 -9 -10 -10 -10 -10 -9 -9 -10 -10 -10 -10 -10 -10 -10 -10 -11 -10 -10 -11 -10 -10 -10 -10 -10 -10 -10 -10 -10 -11 -10 -10 -10 -10 -10 -11 -11 -11 -11 -11 -11
-9 -10 -9 -9 -9 -9 -10 -10 -10 -10 -10 -9 -10 -11 -10 -10 -10 -10 -10 -10 -9 -10 -10 -11 -11 -11 -10 -11 -10 -11 -11 -10 -10 -10 -10 -10 -10 -11 -11 -11 -11 -11 -12 -12
-9 -10 -10 -9 -9 -9 -10 -10 -10 -10 -10 -10 -10 -11 -11 -10 -11 -11 -10 -11 -11 -11 -10 -11 -12 -11 -10 -10 -11 -10 -10 -10 -10 -10 -10 -10 -11 -11 -11 -11 -12 -12 -12 -12
-9 -10 -11 -10 -10 -11 -10 -10 -11 -11 -10 -10 -11 -11 -11 -11 -10 -10 -10 -10 -9 -10 -10 -11 -10 -10 -11 -11 -11 -11 -11 -11 -11 -10 -10 -11 -12 -12 -12 -12 -12 -12 -12 -13
-9 -9 -11 -11 -11 -11 -11 -11 -11 -11 -12 -11 -10 -10 -11 -11 -10 -10 -11 -11 -10 -11 -11 -11 -11 -11 -11 -12 -11 -11 -12 -11 -11 -11 -11 -12 -12 -12 -12 -12 -13 -13 -13 -12
-9 -9 -9 -10 -10 -11 -12 -12 -11 -11 -10 -11 -12 -10 -11 -11 -11 -10 -10 -11 -11 -10 -10 -11 -11 -11 -12 -12 -11 -11 -11 -12 -11 -11 -12 -13 -13 -13 -13 -13 -13 -13 -13 -13
-9 -9 -9 -9 -10 -11 -11 -11 -11 -11 -10 -11 -11 -10 -11 -12 -11 -10 -11 -11 -11 -11 -10 -11 -10 -11 -11 -11 -11 -11 -11 -11 -12 -12 -13 -13 -13 -13 -13 -13 -13 -13 -13 -13
-9 -10 -10 -10 -10 -10 -11 -11 -12 -11 -12 -11 -11 -10 -11 -12 -10 -10 -10 -10 -11 -12 -11 -10 -10 -10 -10 -10 -10 -11 -11 -12 -12 -12 -13 -13 -13 -13 -13 -13 -13 -13 -13 -13
-10 -10 -11 -11 -11 -11 -11 -11 -12 -12 -12 -12 -12 -12 -12 -12 -11 -11 -11 -11 -11 -11 -11 -10 -10 -11 -11 -11 -11 -12 -11 -12 -12 -13 -13 -13 -13 -13 -13 -13 -13 -13 -13 -13
-10 -10 -10 -11 -11 -11 -11 -11 -11 -12 -13 -13 -11 -11 -13 -12 -12 -12 -11 -12 -12 -12 -12 -11 -11 -11 -11 -10 -13 -12 -12 -12 -13 -12 -13 -13 -13 -13 -13 -13 -13 -13 -13 -13
-11 -10 -10 -10 -11 -11 -11 -12 -12 -12 -12 -12 -11 -11 -12 -12 -12 -12 -12 -12 -12 -12 -12 -11 -11 -11 -11 -12 -12 -12 -10 -10 -12 -12 -13 -13 -13 -12 -13 -13 -13 -13 -13 -13
-11 -11 -11 -10 -10 -10 -11 -12 -12 -12 -12 -12 -12 -11 -11 -11 -12 -12 -12 -12 -12 -12 -12 -11 -12 -12 -12 -12 -13 -13 -12 -12 -12 -13 -13 -14 -13 -13 -13 -13 -13 -13 -13 -13
-11 -11 -11 -11 -11 -11 -11 -12 -12 -12 -13 -12 -12 -13 -12 -12 -12 -12 -13 -13 -13 -13 -13 -13 -13 -13 -12 -13 -13 -13 -13 -13 -13 -13 -13 -13 -13 -13 -13 -13 -13 -13 -13 -13
-12 -12 -12 -12 -11 -11 -11 -12 -13 -13 -13 -12 -12 -13 -13 -13 -13 -14 -14 -14 -14 -14 -14 -14 -14 -13 -13 -13 -12 -13 -13 -13 -13 -13 -13 -13 -13 -13 -13 -13 -13 -13 -13 -13
-13 -12 -12 -12 -12 -11 -12 -12 -13 -14 -13 -13 -13 -14 -14 -15 -15 -14 -14 -14 -14 -14 -15 -14 -14 -14 -13 -13 -13 -12 -12 -13 -13 -13 -13 -13 -13 -13 -13 -13 -13 -13 -13 -13
-13 -12 -12 -12 -12 -12 -12 -13 -14 -14 -15 -15 -15 -14 -14 -15 -15 -15 -15 -14 -14 -14 -14 -15 -15 -14 -14 -14 -13 -13 -13 -13 -13 -13 -13 -13 -13 -13 -13 -13 -13 -13 -14 -14
-13 -13 -13 -14 -13 -14 -14 -13 -14 -14 -15 -15 -15 -15 -15 -15 -15 -15 -15 -15 -14 -15 -14 -15 -15 -14 -14 -14 -14 -14 -13 -13 -13 -13 -13 -13 -13 -12 -13 -13 -12 -14 -14 -14
-14 -14 -14 -14 -14 -15 -15 -15 -15 -15 -15 -15 -16 -15 -15 -16 -15 -15 -15 -16 -15 -15 -15 -15 -15 -15 -14 -14 -14 -14 -14 -13 -13 -13 -13 -13 -13 -13 -13 -13 -13 -13 -14 -14
-15 -15 -14 -14 -14 -14 -15 -16 -16 -16 -16 -16 -16 -16 -16 -15 -16 -15 -15 -16 -16 -16 -16 -15 -15 -15 -14 -14 -14 -14 -14 -14 -13 -13 -13 -13 -12 -13 -13 -14 -14 -14 -14 -15
-15 -15 -14 -14 -15 -15 -15 -16 -17 -18 -18 -17 -17 -17 -17 -16 -15 -16 -16 -16 -16 -16 -15 -15 -15 -15 -15 -14 -14 -15 -14 -14 -14 -13 -13 -13 -13 -13 -14 -14 -14 -14 -14 -15
Height
5890 5890 5891 5892 5893 5892 5892 5892 5892 5894 5891 5889 5888 5887 5888 5889 5890 5890 5890 5890 5886 5885 5886 5887 5889 5891 5891 5891 5891 5889 5888 5886 5884 5883 5882 5880 5879 5877 5874 5871 5868 5865 5860 5856
5887 5887 5888 5888 5889 5888 5888 5888 5888 5891 5888 5884 5884 5886 5887 5888 5887 5886 5883 5884 5885 5883 5883 5883 5884 5887 5888 5888 5888 5888 5886 5885 5884 5882 5879 5876 5874 5872 5869 5866 5863 5859 5854 5838
5883 5885 5885 5885 5885 5885 5885 5885 5885 5885 5884 5883 5881 5883 5885 5888 5885 5883 5882 5879 5876 5877 5879 5879 5880 5883 5884 5884 5885 5884 5883 5882 5881 5879 5876 5873 5870 5868 5864 5861 5858 5852 5848 5842
5881 5882 5882 5881 5881 5881 5881 5881 5881 5881 5882 5885 5882 5880 5880 5879 5880 5880 5877 5875 5872 5872 5875 5878 5878 5879 5881 5881 5880 5879 5879 5878 5876 5874 5871 5868 5866 5862 5858 5854 5852 5847 5842 5835
5880 5879 5879 5879 5878 5878 5878 5878 5877 5877 5879 5880 5876 5878 5877 5876 5878 5873 5874 5872 5872 5871 5873 5875 5875 5876 5877 5877 5876 5875 5872 5869 5868 5866 5864 5860 5858 5856 5851 5850 5845 5841 5836 5824
5877 5877 5876 5875 5875 5874 5875 5875 5875 5874 5875 5876 5873 5876 5875 5872 5870 5866 5869 5869 5869 5870 5870 5868 5872 5873 5871 5871 5870 5868 5865 5862 5859 5858 5856 5853 5852 5848 5846 5842 5837 5835 5829 5826
5877 5875 5873 5873 5874 5873 5872 5873 5873 5873 5872 5873 5872 5874 5871 5871 5870 5866 5862 5864 5865 5866 5866 5864 5865 5866 5864 5864 5861 5858 5854 5853 5850 5846 5845 5843 5842 5840 5835 5834 5831 5827 5821 5814
5874 5873 5872 5873 5874 5873 5871 5871 5870 5869 5869 5871 5870 5870 5869 5869 5867 5863 5860 5857 5857 5858 5859 5859 5858 5857 5858 5858 5855 5852 5849 5846 5844 5841 5838 5836 5834 5832 5828 5827 5824 5821 5816 5810
5870 5870 5868 5869 5870 5871 5869 5869 5868 5866 5866 5867 5867 5867 5865 5865 5866 5858 5855 5854 5857 5857 5855 5854 5854 5854 5854 5854 5852 5850 5847 5843 5838 5834 5832 5830 5828 5824 5822 5819 5817 5814 5808 5804
5869 5868 5866 5867 5868 5867 5866 5867 5866 5864 5862 5863 5865 5864 5862 5861 5861 5861 5856 5855 5856 5856 5852 5849 5851 5852 5851 5847 5845 5842 5839 5837 5832 5829 5826 5824 5823 5820 5817 5814 5811 5806 5802 5796
5862 5865 5865 5865 5864 5864 5864 5865 5862 5859 5859 5858 5859 5863 5860 5858 5858 5857 5855 5852 5852 5853 5846 5845 5849 5845 5842 5839 5838 5834 5833 5830 5826 5824 5821 5818 5815 5813 5810 5807 5803 5798 5792 5787
5856 5858 5861 5862 5862 5858 5859 5857 5856 5854 5855 5854 5854 5859 5858 5855 5852 5849 5848 5848 5845 5843 5839 5839 5839 5837 5836 5833 5833 5828 5824 5820 5817 5815 5813 5811 5808 5805 5802 5798 5794 5789 5784 5779
5850 5850 5853 5858 5860 5854 5853 5853 5852 5851 5850 5851 5849 5850 5852 5848 5844 5842 5842 5837 5837 5838 5837 5836 5835 5833 5830 5827 5826 5822 5817 5812 5810 5807 5806 5804 5801 5798 5794 5791 5787 5782 5777 5771
5844 5845 5846 5848 5852 5850 5849 5849 5848 5846 5846 5843 5844 5842 5843 5843 5840 5838 5836 5832 5832 5832 5832 5831 5830 5826 5824 5820 5818 5813 5809 5806 5802 5800 5799 5796 5794 5791 5787 5784 5779 5774 5769 5763
5838 5838 5838 5837 5839 5839 5837 5838 5841 5841 5840 5836 5837 5834 5837 5836 5831 5827 5826 5827 5826 5825 5825 5828 5825 5821 5815 5812 5808 5803 5800 5799 5796 5792 5790 5788 5786 5783 5780 5777 5771 5766 5760 5754
5825 5827 5828 5829 5827 5827 5829 5831 5831 5831 5830 5824 5822 5822 5827 5823 5820 5817 5816 5817 5817 5816 5815 5815 5814 5811 5806 5803 5798 5793 5790 5785 5780 5780 5779 5778 5776 5775 5772 5769 5764 5758 5752 5744
5814 5816 5817 5818 5819 5818 5817 5822 5820 5816 5815 5817 5817 5816 5817 5814 5810 5807 5805 5805 5808 5808 5809 5809 5804 5801 5798 5792 5794 5780 5758 5748 5766 5766 5772 5771 5768 5766 5764 5760 5754 5748 5741 5735
5808 5807 5804 5805 5808 5808 5809 5807 5807 5807 5805 5805 5803 5805 5805 5802 5798 5795 5794 5793 5795 5797 5798 5799 5797 5794 5787 5786 5780 5774 5768 5765 5760 5762 5763 5762 5763 5760 5756 5752 5746 5739 5733 5724
5798 5799 5798 5796 5796 5796 5797 5799 5798 5794 5791 5789 5790 5791 5790 5789 5786 5783 5782 5781 5782 5785 5786 5787 5786 5783 5779 5775 5772 5767 5765 5763 5760 5760 5758 5757 5756 5754 5748 5743 5738 5731 5725 5716
5790 5790 5790 5789 5787 5785 5785 5785 5787 5782 5778 5778 5779 5777 5774 5773 5772 5772 5772 5768 5767 5770 5773 5774 5774 5772 5770 5765 5764 5760 5761 5760 5756 5756 5751 5752 5749 5745 5741 5736 5731 5724 5717 5706
5782 5781 5781 5780 5779 5778 5777 5777 5775 5773 5772 5766 5765 5764 5761 5762 5761 5759 5760 5758 5755 5756 5760 5763 5764 5763 5761 5758 5755 5754 5751 5750 5750 5749 5750 5746 5742 5739 5735 5729 5722 5716 5708 5699
5774 5770 5769 5769 5768 5768 5765 5766 5766 5763 5758 5755 5753 5753 5752 5749 5751 5752 5749 5745 5745 5746 5746 5747 5750 5753 5753 5751 5748 5747 5748 5747 5748 5746 5743 5740 5736 5732 5726 5721 5715 5708 5700 5694
5762 5762 5763 5762 5759 5753 5749 5746 5744 5744 5742 5739 5739 5739 5739 5737 5738 5737 5738 5739 5738 5739 5737 5735 5737 5741 5744 5743 5741 5739 5737 5739 5739 5739 5737 5734 5730 5725 5721 5716 5708 5699 5693 5687
5753 5753 5751 5749 5746 5743 5739 5735 5731 5731 5731 5729 5728 5726 5724 5724 5725 5726 5728 5729 5729 5729 5728 5724 5728 5730 5733 5733 5732 5733 5731 5731 5732 5732 5730 5727 5723 5720 5716 5710 5702 5696 5689 5682
5747 5742 5738 5732 5732 5729 5723 5717 5714 5714 5714 5712 5712 5713 5710 5710 5712 5715 5718 5720 5719 5720 5720 5716 5720 5722 5722 5723 5724 5725 5725 5726 5726 5725 5723 5721 5719 5714 5710 5704 5698 5691 5684 5678
5731 5726 5722 5722 5718 5713 5711 5708 5702 5697 5697 5695 5695 5697 5697 5695 5698 5702 5705 5708 5710 5711 5712 5709 5712 5713 5714 5715 5716 5717 5719 5719 5718 5718 5716 5715 5713 5708 5705 5699 5694 5688 5681 5673
Wind_Speed
12 15 15 15 14 17 21 23 22 19 14 14 16 12 10 12 10 14 18 20 23 24 20 23 22 16 19 22 17 17 18 20 21 21 23 24 26 25 23 25 27 30 35 33
14 15 14 15 17 20 21 25 24 15 18 22 24 20 17 12 8 10 6 12 30 23 26 26 25 22 23 25 28 30 17 16 20 20 24 27 29 26 26 28 31 34 37 38
13 14 13 13 19 19 17 19 19 17 25 25 25 22 24 14 12 10 8 8 10 28 31 32 31 26 25 29 31 29 15 17 18 20 22 24 26 29 31 32 29 37 40 34
10 10 12 12 12 8 12 15 15 16 16 14 23 22 11 17 16 9 14 10 10 5 20 29 25 22 21 18 19 17 15 17 22 24 26 29 29 31 33 32 33 37 36 35
7 5 6 7 6 7 8 10 12 13 9 4 3 3 2 11 11 16 13 12 4 6 12 19 24 18 15 16 17 19 24 27 29 30 32 33 34 36 35 34 35 35 32 38
9 10 11 13 8 9 10 9 9 10 8 8 11 2 7 7 15 19 9 14 26 14 20 25 20 24 24 20 22 28 34 36 36 36 38 38 38 40 40 35 34 34 31 36
8 13 17 16 8 10 12 10 9 8 7 14 11 3 3 5 9 7 9 12 17 14 21 27 23 26 29 36 37 37 34 38 43 44 41 42 43 44 44 35 33 33 37 34
8 14 17 16 13 5 10 10 11 8 9 4 10 9 11 5 6 19 12 16 17 17 23 21 24 30 35 36 32 29 27 30 35 37 39 41 42 39 41 35 32 34 38 35
7 9 15 15 15 14 11 11 17 16 10 7 8 10 11 16 15 18 23 14 16 25 22 13 19 27 29 31 32 29 29 32 33 31 28 28 30 30 29 33 34 35 38 39
7 9 16 15 14 15 14 16 10 14 15 13 8 9 13 16 20 19 24 26 26 29 39 31 28 24 34 36 35 33 33 34 33 31 29 26 26 29 32 35 34 37 37 39
13 11 14 15 19 21 23 18 17 17 17 19 15 10 17 22 21 19 19 28 31 30 33 24 23 35 36 36 32 32 30 30 28 27 26 25 27 31 32 34 36 37 39 40
23 20 15 16 18 25 26 25 23 22 19 20 22 12 12 21 28 31 31 30 30 36 37 30 34 33 33 36 30 32 27 29 31 27 24 25 27 31 33 33 37 40 40 41
30 29 26 19 18 25 26 27 27 28 30 26 26 24 11 23 28 31 33 36 35 35 39 41 37 38 42 44 34 30 31 29 28 25 25 28 31 29 30 32 34 38 39 42
34 32 31 30 24 26 28 26 31 33 32 34 34 33 24 25 28 31 32 34 36 37 32 33 31 37 38 39 36 34 32 27 26 25 26 29 30 31 33 37 39 41 43 47
36 35 34 34 31 32 32 31 30 33 33 39 36 39 33 34 37 41 42 41 39 38 39 31 31 35 37 38 35 37 32 28 26 26 28 28 30 34 38 41 42 45 48 50
38 35 34 32 36 36 34 33 33 36 39 44 44 45 39 42 47 50 51 48 46 45 44 38 31 29 33 34 34 38 35 34 28 29 28 30 34 36 37 41 45 48 50 52
41 39 38 36 33 33 36 29 32 38 41 43 46 48 47 50 53 55 57 56 53 51 49 40 30 31 33 37 35 38 36 21 31 24 27 28 30 32 37 40 41 43 45 47
37 38 41 39 34 33 31 31 32 31 34 37 42 44 46 50 53 55 56 59 55 52 41 29 31 31 35 36 37 41 43 42 29 32 36 26 28 30 32 36 43 39 48 50
35 33 35 37 36 36 34 33 33 33 38 41 41 41 43 45 49 53 53 50 47 42 37 37 35 34 36 39 41 43 40 37 29 30 21 17 25 29 33 37 42 45 45 50
29 30 31 32 35 37 38 38 36 40 44 45 44 43 46 45 47 49 46 45 44 40 40 40 42 41 39 42 42 43 37 31 32 31 25 26 29 33 36 40 39 42 45 44
30 30 32 33 36 39 41 41 40 42 47 48 46 45 44 45 49 52 52 45 42 45 45 44 44 44 40 43 42 41 41 36 35 37 33 30 33 35 38 39 37 40 41 39
32 36 38 39 41 42 43 44 42 40 41 41 42 39 42 45 45 54 56 57 49 47 50 47 42 40 40 41 42 42 38 38 37 36 31 31 34 37 38 38 41 40 31 33
36 35 34 36 39 45 50 52 53 48 46 44 43 39 43 44 39 52 55 45 36 37 43 46 44 40 39 39 39 40 40 32 30 29 28 30 34 34 35 36 42 31 28 31
34 32 36 41 44 45 49 53 56 56 51 50 47 45 45 40 33 33 43 43 43 44 47 46 41 44 38 37 36 37 34 30 24 24 27 29 31 32 31 30 28 26 29 32
30 35 40 46 45 49 54 56 57 55 51 50 47 48 53 48 32 30 29 34 35 33 33 41 41 39 38 36 32 33 31 25 27 27 27 26 27 30 29 32 31 31 29 31
34 40 46 49 50 56 58 55 53 51 49 49 47 44 47 49 47 48 45 40 35 32 30 37 37 36 36 35 31 31 29 30 30 26 24 23 24 28 29 32 30 32 30 33
Wind_Direction
264 259 255 255 244 242 253 261 258 267 254 251 261 277 269 267 295 282 261 252 261 270 283 288 297 307 308 309 316 298 292 299 308 308 311 312 312 315 317 322 323 321 320 312
259 265 262 255 249 244 244 257 271 279 236 256 255 288 314 295 222 220 231 263 260 252 269 277 284 293 289 299 305 313 292 294 299 298 299 306 306 310 314 317 316 317 311 297
266 267 271 268 255 252 255 266 279 262 243 258 282 299 307 267 236 257 260 251 273 238 250 262 275 285 290 294 302 292 282 282 285 288 294 302 306 309 307 307 310 311 307 310
273 281 281 269 265 261 272 272 275 277 280 302 275 283 258 223 234 274 261 265 299 216 247 252 263 284 298 291 286 282 280 274 279 284 288 291 296 299 298 300 306 306 306 295
265 281 299 291 270 279 282 296 299 295 295 242 347 38 187 215 220 266 261 269 251 262 253 280 273 257 273 286 282 285 277 272 276 280 286 289 294 296 293 300 301 304 300 306
266 261 255 260 272 294 295 298 300 298 295 178 248 160 95 208 239 274 283 305 326 256 280 256 284 292 300 308 311 304 285 279 279 281 285 286 292 295 297 295 300 302 297 301
274 281 284 291 295 284 289 298 302 300 286 205 245 348 237 280 270 286 255 295 302 287 288 290 300 297 298 306 312 311 289 286 285 286 286 288 289 293 294 296 298 297 301 301
272 260 282 287 306 340 309 310 301 288 292 289 255 265 249 227 245 244 199 218 247 252 278 302 304 303 308 308 308 310 303 288 284 285 285 286 288 286 288 291 293 299 299 310
250 257 271 286 310 331 316 316 299 304 300 288 203 217 274 273 230 238 239 232 263 283 283 289 297 293 295 310 313 302 300 299 295 292 292 290 291 290 286 291 298 296 305 307
246 223 256 278 296 293 289 313 286 289 290 277 228 239 256 255 271 284 285 297 291 283 278 255 271 279 302 306 311 302 307 309 296 297 297 298 291 285 287 293 295 301 303 302
289 245 238 253 272 273 273 285 281 263 269 283 280 242 261 261 264 262 275 270 278 262 263 279 296 290 290 298 315 310 301 304 294 294 292 290 287 289 287 294 299 302 303 304
282 277 256 257 265 261 265 269 274 271 270 271 281 303 282 271 271 270 270 281 274 268 293 304 304 301 298 303 314 311 295 286 289 290 296 297 296 296 299 304 305 304 303 303
277 279 279 263 248 256 259 263 264 270 285 281 283 289 277 250 258 269 273 279 283 288 289 294 302 297 301 301 304 300 302 302 288 286 288 295 299 303 303 304 304 308 308 306
276 279 279 280 273 263 263 259 256 263 265 278 285 292 273 251 268 288 280 279 279 276 289 295 295 295 295 296 302 297 291 301 292 282 287 290 292 294 298 300 303 304 305 306
272 275 278 279 275 267 263 256 257 255 264 268 276 278 282 275 267 280 282 283 281 280 279 287 289 290 291 293 297 293 295 292 283 273 275 279 285 289 293 298 300 302 303 307
270 267 264 264 269 274 268 268 263 255 256 258 267 274 269 267 273 277 281 281 282 286 289 298 297 280 283 288 287 290 286 273 272 264 268 273 279 289 297 299 301 303 306 304
276 275 273 267 263 265 269 269 263 263 260 262 266 270 269 268 272 274 277 278 280 281 281 286 282 287 286 286 295 284 279 262 260 274 269 277 284 293 299 304 304 303 306 317
269 273 276 278 275 269 270 273 271 274 272 272 271 272 273 269 270 271 270 272 276 279 283 282 282 281 282 286 289 290 298 308 331 327 315 277 292 298 305 310 322 314 325 318
273 276 278 280 283 280 283 285 288 289 287 284 282 277 274 273 273 272 273 274 276 279 276 277 278 273 276 280 285 288 296 306 311 312 318 302 304 310 312 319 318 321 324 324
270 272 275 279 278 282 287 292 297 290 285 284 283 283 279 275 270 268 267 267 268 267 270 274 276 273 270 276 278 282 289 294 298 303 320 317 317 313 316 316 317 324 329 335
277 276 275 275 276 278 281 283 283 281 282 285 285 286 281 271 266 264 259 256 266 268 268 268 271 270 269 276 278 280 283 286 293 300 305 310 311 314 317 316 311 320 329 329
277 280 284 287 287 288 286 286 285 285 281 278 281 280 278 275 267 261 262 261 259 261 271 271 268 270 273 276 279 278 278 278 281 290 293 302 308 311 317 316 318 317 317 321
280 280 284 288 292 289 290 292 292 289 284 283 279 277 279 273 271 262 256 264 266 272 273 271 271 270 275 276 277 283 287 281 285 287 291 303 307 315 317 318 332 327 323 325
283 291 292 290 285 286 284 284 283 282 280 278 277 277 274 269 257 263 269 259 259 260 262 264 271 278 276 274 273 275 285 293 293 289 296 305 310 314 317 324 333 326 327 327
295 289 288 284 288 285 283 282 282 282 281 277 271 265 263 255 257 251 258 267 253 257 261 265 267 271 275 274 272 268 273 284 295 298 298 303 308 311 319 327 329 325 326 328
291 287 286 291 287 288 288 284 283 279 275 274 275 273 268 271 263 258 259 269 256 259 259 260 265 268 273 278 272 264 271 281 289 291 296 301 309 316 319 326 323 325 325 330